map of TRQ home
Great Circle Mapper logo
TRQ - Airport
Location
City:  Tarauacá, Acre, Brazil
ICAO / IATA:SBTK / TRQ

Details
Type:Airport (Aerodrome, Airfield)
Latitude:8°09'19"S (-8.155255)
Longitude:70°47'00"W (-70.783268)
Datum:WGS 1984
Elevation:646 ft (197 m)
Variation:7.22°W (WMM2015 magnetic declination)
-0.17° annual change
Runways:1
Longest:4019 × 50 ft (1225 × 15 m), paved

Time
Time Zone:UTC-5
Local Time:

Weather
METAR:SBTK 271600Z 02004KT 9000 -RA OVC015 24/23 Q1015

Related Locations
Nearby:
Farthest:VCS: 12268 mi / 19743 km
Con Son Island [Con Dao Airport (Co Ong Airport)], Con Dao Archipelago, VN

Find:

   beyond  
but within

Other Information
Maps:
NOTAMs:
Links:
Sources:

  
flag of Brazil
flag of Acre
  

Sectional Chart

Flight Planning
at skyvector.com

Satellite Image

Google Maps Satellite View

 

Copyright © 2004-2015 Karl L. Swartz. All rights reserved.
The Great Circle Mapper name and logo are trademarks of the Great Circle Mapper.
All other trademarks mentioned herein belong to their respective owners.
Please see credits for attibutions and further copyright information.

  Follow gcmap on Facebook Follow gcmap on Twitter

hCard Microformat

Geo Microformat